SCP
0 -0 -0 -0 -0 -0 -0 -0 -0 -0 -0 -0 -0 -0 -0 -0 -0 -0 -0 -0 -0 -0 -0 -0 -0 -0 -0 -0 -0 -0 -0 -0 -0
-0 -0 -0 -0 -0 -0 -0 -0 -0 -0 -0 -0 -0 -0 -0 -0 -0 -0 -0 -0 -0 -0 -0 -0 -0 -0 -0 -0 -0 -0 -0 -0 -0
-0 -0 -0 -0 -0 -0 -0 -0 -0 -0 -0 -0 -0 -0 -0 0 0 0 0 -0 -0 -0 -0 -0 -0 -0 -0 -0 -0 -0 -0 -0 -0
-0 -0 -0 -0 -0 -0 -0 -0 -0 -0 -0 -0 -0 -0 -0 0 0 0 0 0 -0 -0 -0 -0 -0 -0 -0 -0 -0 -0 -0 -0 -0
-0 -0 -0 -0 -0 -0 -0 -0 -0 -0 -0 -0 -0 -0 -0 0 0 0 0 -0 -0 -0 -0 -0 -0 -0 -0 -0 -0 -0 -0 -0 -0
0 0 -0 -0 -0 -0 -0 -0 -0 -0 -0 -0 -0 0 0 0 0 0 -0 -0 -0 -0 -0 -0 -0 -0 -0 -0 -0 -0 -0 -0 -0
0 0 -0 -0 -0 -0 -0 -0 -0 0 0 0 0 0 0 0 0 0 -0 -0 -0 -0 -0 -0 -0 -0 -0 -0 -0 -0 -0 -0 -0
0 0 0 0 0 0 0 0 0 0 0 0 0 0 0 0 0 0 0 -0 -0 -0 -0 -0 -0 -0 -0 -0 -0 -0 -0 -0 -0
0 0 0 0 0 0 0 0 0 0 0 0 0 0 0 0 0 0 0 0 0 -0 -0 -0 -0 -0 0 0 0 0 0 0 0
0 0 0 0 0 0 0 0 0 0 0 0 0 0 0 0 0 0 0 0 0 0 0 0 0 0 0 0 0 0 0 0 0
0 0 0 0 0 0 0 0 0 0 0 0 0 0 0 0 0 0 0 0 0 0 0 0 0 0 0 0 0 0 0 0 0
0 0 0 0 0 0 0 0 0 0 0 0 0 0 0 0 0 0 0 0 0 0 0 0 0 0 0 0 0 0 0 0 0
0 0 0 0 0 0 0 0 0 0 0 0 0 0 0 0 0 0 0 0 0 0 0 0 0 0 0 0 0 0 0 0 0
0 0 0 0 0 0 0 0 0 0 0 0 0 0 0 0 0 0 0 0 0 0 0 0 0 0 0 0 0 0 0 0 0
0 0 0 0 0 0 0 0 0 0 0 0 0 0 0 0 0 0 0 0 0 0 0 0 0 0 0 0 0 0 0 0 0
0 0 0 0 0 0 0 0 0 0 0 0 0 0 0 0 0 0 0 0 0 0 0 0 0 0 0 0 0 0 0 0 0
0 0 0 0 0 0 0 0 0 0 0 0 0 0 0 0 0 0 0 0 0 0 0 0 0 0 0 0 0 0 0 0 0
0 0 0 0 0 0 0 0 0 0 0 0 0 0 0 0 0 0 0 0 0 0 0 0 0 0 0 0 0 0 0 0 0
0 0 0 0 0 0 0 0 0 0 0 0 0 0 0 0 0 0 0 0 0 0 0 0 0 0 0 0 0 0 0 0 0
0 0 -0 -0 0 0 0 0 0 0 0 0 0 0 0 0 0 0 0 0 0 0 0 0 0 0 0 0 0 0 0 0 0
Wind_Speed_500mb
32 29 24 16 27 20 20 22 23 27 26 26 27 28 27 32 44 44 33 37 38 46 47 43 37 35 35 35 38 38 43 44 47
29 27 23 18 27 23 18 17 18 20 21 21 24 25 26 28 38 47 42 38 41 40 46 49 46 44 42 44 41 40 43 45 46
28 25 23 20 26 20 14 16 17 18 20 23 23 23 23 26 31 36 36 35 44 43 38 38 46 45 44 44 44 42 40 41 42
29 22 22 19 22 19 15 15 15 18 20 21 23 23 23 24 28 30 32 36 41 40 40 41 35 39 42 42 43 45 43 42 40
23 20 20 21 20 17 16 15 16 19 23 26 26 25 25 27 31 35 33 35 41 41 40 42 39 36 38 38 40 38 40 41 39
23 23 24 22 21 18 18 18 21 25 30 33 31 29 34 37 39 34 32 36 34 30 30 35 39 39 37 33 37 39 39 36 36
27 27 25 24 23 22 24 26 30 32 36 39 36 37 38 42 41 40 40 38 39 37 34 31 30 29 29 28 25 23 27 35 36
31 33 30 28 27 29 31 33 34 35 35 36 37 37 36 40 40 39 38 39 40 39 38 38 37 34 31 28 24 23 23 21 21
32 31 30 31 32 33 35 35 35 35 35 33 33 33 32 32 35 34 32 33 34 35 35 35 35 34 34 34 32 27 21 16 14
34 35 35 36 36 36 38 36 35 34 33 32 28 28 28 27 27 30 28 28 29 29 30 32 32 33 32 31 30 28 26 23 18
36 38 39 39 38 36 35 35 33 30 27 27 25 24 24 23 23 23 23 22 23 24 25 26 26 26 27 28 28 29 27 25 22
39 40 41 41 39 37 35 34 31 28 26 23 24 23 22 22 20 18 18 18 19 20 21 22 24 25 26 27 27 27 27 27 26
41 42 43 42 38 35 33 31 30 26 25 21 19 18 17 16 14 13 12 11 10 11 15 16 18 20 23 26 28 30 29 28 27
40 42 42 41 38 34 29 28 24 24 23 21 18 16 15 12 10 7 4 2 1 4 8 14 18 20 21 23 27 30 32 32 31
42 42 42 41 40 37 33 27 25 22 20 18 17 13 14 11 11 8 7 7 7 8 11 15 20 22 24 28 30 30 31 32 32
44 44 45 45 40 38 35 31 26 24 22 19 17 16 16 16 14 12 14 15 15 16 17 19 24 27 29 33 36 36 34 33 33
43 44 46 45 43 42 37 32 30 28 26 23 18 14 18 20 16 13 18 22 24 23 23 23 28 32 34 38 39 40 42 42 39
44 42 42 42 41 40 36 33 31 30 29 27 17 11 11 21 23 20 21 26 28 26 26 28 33 38 40 39 40 45 49 50 51
56 43 37 40 42 42 37 37 35 32 30 28 28 27 18 13 10 20 22 25 28 30 32 34 41 42 42 47 52 53 52 50 49
60 49 42 44 45 39 38 38 37 35 32 32 30 30 28 28 28 18 26 30 35 35 38 43 43 46 53 56 56 52 48 45 45
Wind_Direction_500mb
134 146 144 138 117 120 112 95 88 87 85 86 86 87 86 85 84 78 79 86 81 75 71 72 74 75 74 71 70 67 64 60 63
146 147 145 133 126 128 124 105 93 85 82 95 92 90 92 94 91 89 83 74 73 76 75 69 71 72 75 75 74 71 71 63 64
142 144 146 139 134 140 128 115 106 93 91 96 98 97 100 103 101 99 89 84 80 75 80 78 70 69 71 69 66 65 65 64 65
162 160 157 152 136 147 133 120 107 102 103 103 102 101 101 105 101 91 77 80 75 81 77 80 84 75 70 69 68 63 58 62 64
165 161 160 152 143 144 130 121 113 109 110 108 105 104 105 101 95 82 80 78 78 77 79 82 79 86 78 72 73 70 67 58 62
165 162 162 155 152 146 132 122 115 115 110 104 102 106 100 98 87 83 85 83 77 76 79 81 76 75 80 76 72 74 73 65 60
166 164 168 158 157 143 133 124 117 113 107 103 102 99 99 95 87 84 81 79 77 75 74 71 68 71 78 77 76 83 79 75 74
175 172 173 162 162 144 135 128 121 113 108 106 101 98 94 94 91 88 84 80 78 76 73 70 68 66 63 63 60 60 70 71 71
178 175 170 158 154 149 141 135 127 121 115 109 106 103 99 97 97 92 88 82 77 73 71 67 63 59 57 57 54 53 53 48 58
179 173 169 160 155 155 146 140 133 127 121 116 113 111 107 100 94 94 86 83 79 75 70 67 63 58 53 49 47 45 43 42 36
178 173 169 162 158 155 150 145 141 134 126 120 114 111 111 109 105 98 96 91 85 76 66 59 54 51 47 43 38 35 33 29 25
178 175 171 167 163 164 160 153 148 142 135 128 121 114 109 109 108 102 96 88 81 74 62 49 41 34 28 24 25 22 20 17 12
182 180 175 173 173 172 168 162 155 149 144 140 133 127 121 118 114 104 100 98 86 66 50 38 29 22 18 13 8 3 0 1 359
188 184 182 180 179 180 179 174 172 164 160 157 155 153 154 147 141 137 121 136 112 9 9 2 360 354 353 354 353 349 347 345 346
190 191 192 189 187 187 187 189 181 180 176 173 168 170 177 187 190 199 230 241 265 300 316 322 331 329 329 331 335 334 334 331 332
196 195 197 197 197 196 195 193 198 195 193 192 190 196 203 205 208 232 244 252 259 278 287 298 312 314 316 319 322 320 318 316 315
202 200 204 205 200 200 204 208 205 208 208 207 207 210 214 212 224 233 246 246 250 260 270 281 298 302 304 309 310 312 311 309 305
209 209 213 212 211 211 213 217 220 223 217 215 211 211 213 212 217 240 235 237 245 256 264 276 289 295 298 299 299 301 300 298 297
189 210 219 226 221 217 220 225 226 227 227 228 230 234 237 213 241 245 244 241 247 257 267 276 286 288 289 292 295 296 295 294 292
177 192 217 227 227 226 229 229 228 229 232 235 233 236 239 244 246 254 257 251 254 258 265 273 277 284 289 293 295 296 295 293 290
Wind_Speed_850mb
32 29 24 16 27 20 20 22 23 27 26 26 27 28 27 32 44 44 33 37 38 46 47 43 37 35 35 35 38 38 43 44 47
29 27 23 18 27 23 18 17 18 20 21 21 24 25 26 28 38 47 42 38 41 40 46 49 46 44 42 44 41 40 43 45 46
28 25 23 20 26 20 14 16 17 18 20 23 23 23 23 26 31 36 36 35 44 43 38 38 46 45 44 44 44 42 40 41 42
29 22 22 19 22 19 15 15 15 18 20 21 23 23 23 24 28 30 32 36 41 40 40 41 35 39 42 42 43 45 43 42 40
23 20 20 21 20 17 16 15 16 19 23 26 26 25 25 27 31 35 33 35 41 41 40 42 39 36 38 38 40 38 40 41 39
23 23 24 22 21 18 18 18 21 25 30 33 31 29 34 37 39 34 32 36 34 30 30 35 39 39 37 33 37 39 39 36 36
27 27 25 24 23 22 24 26 30 32 36 39 36 37 38 42 41 40 40 38 39 37 34 31 30 29 29 28 25 23 27 35 36
31 33 30 28 27 29 31 33 34 35 35 36 37 37 36 40 40 39 38 39 40 39 38 38 37 34 31 28 24 23 23 21 21
32 31 30 31 32 33 35 35 35 35 35 33 33 33 32 32 35 34 32 33 34 35 35 35 35 34 34 34 32 27 21 16 14
34 35 35 36 36 36 38 36 35 34 33 32 28 28 28 27 27 30 28 28 29 29 30 32 32 33 32 31 30 28 26 23 18
36 38 39 39 38 36 35 35 33 30 27 27 25 24 24 23 23 23 23 22 23 24 25 26 26 26 27 28 28 29 27 25 22
39 40 41 41 39 37 35 34 31 28 26 23 24 23 22 22 20 18 18 18 19 20 21 22 24 25 26 27 27 27 27 27 26
41 42 43 42 38 35 33 31 30 26 25 21 19 18 17 16 14 13 12 11 10 11 15 16 18 20 23 26 28 30 29 28 27
40 42 42 41 38 34 29 28 24 24 23 21 18 16 15 12 10 7 4 2 1 4 8 14 18 20 21 23 27 30 32 32 31
42 42 42 41 40 37 33 27 25 22 20 18 17 13 14 11 11 8 7 7 7 8 11 15 20 22 24 28 30 30 31 32 32
44 44 45 45 40 38 35 31 26 24 22 19 17 16 16 16 14 12 14 15 15 16 17 19 24 27 29 33 36 36 34 33 33
43 44 46 45 43 42 37 32 30 28 26 23 18 14 18 20 16 13 18 22 24 23 23 23 28 32 34 38 39 40 42 42 39
44 42 42 42 41 40 36 33 31 30 29 27 17 11 11 21 23 20 21 26 28 26 26 28 33 38 40 39 40 45 49 50 51
56 43 37 40 42 42 37 37 35 32 30 28 28 27 18 13 10 20 22 25 28 30 32 34 41 42 42 47 52 53 52 50 49
60 49 42 44 45 39 38 38 37 35 32 32 30 30 28 28 28 18 26 30 35 35 38 43 43 46 53 56 56 52 48 45 45
Wind_Direction_850mb
134 146 144 138 117 120 112 95 88 87 85 86 86 87 86 85 84 78 79 86 81 75 71 72 74 75 74 71 70 67 64 60 63
146 147 145 133 126 128 124 105 93 85 82 95 92 90 92 94 91 89 83 74 73 76 75 69 71 72 75 75 74 71 71 63 64
142 144 146 139 134 140 128 115 106 93 91 96 98 97 100 103 101 99 89 84 80 75 80 78 70 69 71 69 66 65 65 64 65
162 160 157 152 136 147 133 120 107 102 103 103 102 101 101 105 101 91 77 80 75 81 77 80 84 75 70 69 68 63 58 62 64
165 161 160 152 143 144 130 121 113 109 110 108 105 104 105 101 95 82 80 78 78 77 79 82 79 86 78 72 73 70 67 58 62
165 162 162 155 152 146 132 122 115 115 110 104 102 106 100 98 87 83 85 83 77 76 79 81 76 75 80 76 72 74 73 65 60
166 164 168 158 157 143 133 124 117 113 107 103 102 99 99 95 87 84 81 79 77 75 74 71 68 71 78 77 76 83 79 75 74
175 172 173 162 162 144 135 128 121 113 108 106 101 98 94 94 91 88 84 80 78 76 73 70 68 66 63 63 60 60 70 71 71
178 175 170 158 154 149 141 135 127 121 115 109 106 103 99 97 97 92 88 82 77 73 71 67 63 59 57 57 54 53 53 48 58
179 173 169 160 155 155 146 140 133 127 121 116 113 111 107 100 94 94 86 83 79 75 70 67 63 58 53 49 47 45 43 42 36
178 173 169 162 158 155 150 145 141 134 126 120 114 111 111 109 105 98 96 91 85 76 66 59 54 51 47 43 38 35 33 29 25
178 175 171 167 163 164 160 153 148 142 135 128 121 114 109 109 108 102 96 88 81 74 62 49 41 34 28 24 25 22 20 17 12
182 180 175 173 173 172 168 162 155 149 144 140 133 127 121 118 114 104 100 98 86 66 50 38 29 22 18 13 8 3 0 1 359
188 184 182 180 179 180 179 174 172 164 160 157 155 153 154 147 141 137 121 136 112 9 9 2 360 354 353 354 353 349 347 345 346
190 191 192 189 187 187 187 189 181 180 176 173 168 170 177 187 190 199 230 241 265 300 316 322 331 329 329 331 335 334 334 331 332
196 195 197 197 197 196 195 193 198 195 193 192 190 196 203 205 208 232 244 252 259 278 287 298 312 314 316 319 322 320 318 316 315
202 200 204 205 200 200 204 208 205 208 208 207 207 210 214 212 224 233 246 246 250 260 270 281 298 302 304 309 310 312 311 309 305
209 209 213 212 211 211 213 217 220 223 217 215 211 211 213 212 217 240 235 237 245 256 264 276 289 295 298 299 299 301 300 298 297
189 210 219 226 221 217 220 225 226 227 227 228 230 234 237 213 241 245 244 241 247 257 267 276 286 288 289 292 295 296 295 294 292
177 192 217 227 227 226 229 229 228 229 232 235 233 236 239 244 246 254 257 251 254 258 265 273 277 284 289 293 295 296 295 293 290